Fitzsimmons, D. Young, B. Stalder. Measurers L. Denneau, A. Heinze, J.
Tonry. 0.5-m f/2.0 Schmidt + CCD.
(Z80) Northolt Branch Observatory (N51.554661 W0.371920) UK. Observer G.
Wells. Measurer D. Bamberger.
(Z84) Calar Alto-Schmidt (N37.223981 W2.548143) Spain. Observer E. Schwab.
Measurers E. Schwab, D. Koschny, M. Micheli. 0.8-m f/3 Schmidt + CCD.
Orbital elements: 2020-049A = NORAD 45935 = Tianwen-1 spacecraft (geocentric escape)
Perigee 2020 Jul 23.21849682 +/- 1.48e-5 TT = 5:14:38.125 (JD 2459053.71849682)
Epoch 2020 Jul 24.0 TT = JDT 2459054.5 Find_Orb
q 6571.98920246 +/- 0.827 (J2000 equator)
H 26.4 G 0.15 Peri. 249.91904731 +/- 0.0031
Node 341.68008391 +/- 0.0045
e 1.1972718520 +/- 4.52e-5 Incl. 29.42030776 +/- 0.00012
110 of 113 observations 2020 July 23-30; mean residual 0".472
Orbital elements: TianweA (heliocentric, Mars cruise)
Perihelion 2020 Jul 18.77620527 +/- 3.81e-5 TT = 18:37:44.135 (JD 2459049.27620527)
Epoch 2020 Oct 1.0 TT = JDT 2459123.5 Earth MOID: 0.0002 Ma: 0.0211
M 48.82201141741 +/- 0.0017 (J2000 ecliptic) Find_Orb
n 0.65776765513 +/- 2.39e-5 Peri. 355.94446566 +/- 0.00017
a 1.30944634186 +/- 3.17e-5 Node 299.92731019 +/- 0.00009
e 0.2243237342 +/- 1.89e-5 Incl. 1.04861980 +/- 0.00006
P 1.50/547.30d H 26.4 G 0.15 U 5.6
q 1.01570644866 +/- 8.46e-8 Q 1.60318623507 +/- 6.36e-5
110 of 113 observations 2020 July 23-30; mean residual 0".314
Orbital elements: TianweA (Mars arrival)
Perimars 2021 Feb 10.59691738 +/- 0.0473 TT = 14:19:33.662 (JD 2459256.09691738)
Epoch 2021 Feb 11.0 TT = JDT 2459256.5 Find_Orb
q 0.02110411511 +/- 3.77e-5 (J2000 ecliptic)
H 26.4 G 0.15 Peri. 240.00398417 +/- 0.007
Node 37.91793513 +/- 0.030
e 396.0791249067 +/- 0.365 Incl. 54.15283844 +/- 0.016
110 of 113 observations 2020 July 23-30; mean residual 0".314
Residuals in arcseconds: 200723 T08 .389+ 1.17+ 200725 718 1.08- .679+ 200727 Z84 .040- .227+ 200723 T08 .184- .139+ 200725 718 1.07- .769+ 200727 Z84 .087- .171+ 200723 T08 .682- 1.14+ 200725 718 .832- .583+ 200728 C95 .558+ .364+ 200723 T08 .772- 1.08+ 200725 718 .963- .878+ 200728 C95 .539+ .065+ 200723 Z80 .765+ 1.00- 200725 718 .853- .458+ 200728 C95 .637+ .484- 200723 Z80 .237+ 1.09- 200725 718 1.04- .583+ 200728 C95 .116- .012- 200723 Z80 .386+ .975- 200725 718 .724- .190+ 200728 C95 .824+ .292- 200724 J04 .670+ .442+ 200725 718 1.05- .443+ 200728 C95 .624+ .051- 200724 J04 .709+ .469+ 200725 718 1.16- .562+ 200728 J95 .001- .234- 200724 J04 .740+ .331+ 200725 718 .895- .403+ 200728 J95 .010+ .018+ 200724 I89 .155- .268+ 200725 718 1.00- .527+ 200728 J95 .090+ .069- 200724 I89 .251- .437+ 200725 718 .248- .007- 200728 Z84 .062+ .055+ 200724 I89 .095- .433+ 200725 718 .637- .326+ 200728 Z84 .130+ .028+ 200724 I89 .491- .520+ 200725 718 .736- .062+ 200728 Z84 .078+ .119+ 200724 J04 .348+ .538+ 200725 718 .833- .400+ 200728 N88 .247+ .027+ 200724 J04 1.01- .763+ 200725 718 .888- .248+ 200728 N88 .314- .160- 200724 J04 1.07- .739+ 200725 718 .835- .696+ 200728 N88 .791+ .471- 200725 Z84 .060+ .172+ 200725 N88 .102- .056+ 200728 N88 .200- .051- 200725 Z84 .047+ .186+ 200725 N88 .630- .246+ 200728 N88 .133+ .149- 200725 Z84 .065+ .211+ 200725 N88 .374- .169+ 200729 Z84 .147+ .121+ 200725 Z84 .044+ .181+ 200725 N88 .309- .101+ 200729 Z84 .098+ .011- 200725 204 .373- .013+ 200725 N88 .153- .240+ 200729 Z84 .177+ .042+ 200725 204 .432- .098- 200725 J95 .342- .042+ 200729 G96 .001- .033+ 200725 204 .456- .086+ 200725 J95 .202- .093- 200729 G96 .157+ .034- 200725 204 .304- .065+ 200726 J95 .136+ .088+ 200729 G96 .123+ .156+ 200725 204 .365- .007+ 200726 J95 .129- .095- 200729 G96 .042+ .022+ 200725 204 .441- .028- 200726 C95 .011+ .098- 200729 C95 .363+ .470- 200725 204 .363- .068+ 200726 C95 .269- .002- 200730 C95 .336+ .115+ 200725 204 .471- .006- 200726 C95 .046+ .115+ 200730 C95 .275- .108- 200725 204 .430- .018+ 200726 Z84 .229- .237+ 200730 C95 .325+ .535- 200725 204 .535- .060- 200726 Z84 .196- .224+ 200730 C95 .720+ .726- 200725 Z84 .436- .279+ 200726 Z84 .180- .228+ 200730 C95 .416+ .431- 200725 Z84 .411- .313+ 200726 N88 .578- .040+ 200730 N88 .492+ .231- 200725 Z84 .443- .274+ 200726 N88 .034+ .124+ 200730 N88 .184+ .098+ 200725 Z84 .468- .304+ 200726 N88 .087+ .093+ 200803 Z84(31.4+ 81.7+) 200725 Z84 .863- .259+ 200726 N88 .363- .345+ 200803 Z84(31.6+ 82.2+) 200725 718 .806- .940+ 200726 N88 .248- .255+ 200803 Z84(31.7+ 82.5+) 200725 718 .806- .221+ 200727 Z84 .086- .104+ Ephemerides (geocentric): Date (UTC) RA Dec delta r elong mag " sig PA ---- ----- -------------- ----------- ----- ------ ----- --- -------- 2020 07 24 00 42 55.560 +15 18 56.87 296194 1.0164 105.2 15.6 .887 92 2020 07 25 00 50 35.157 +16 10 45.41 616572 1.0168 104.1 17.2 .374 96 2020 07 26 00 53 00.820 +16 26 37.07 928156 1.0172 104.4 18.1 .208 100 2020 07 27 00 54 11.694 +16 34 03.87 .00826 1.0177 105.0 18.7 .125 106 2020 07 28 00 54 52.735 +16 38 10.61 .01031 1.0183 105.8 19.1 .076 117 2020 07 29 00 55 18.687 +16 40 36.84 .01234 1.0189 106.6 19.5 .046 137 2020 07 30 00 55 35.766 +16 42 04.71 .01437 1.0196 107.5 19.8 .034 173 2020 07 31 00 55 46.990 +16 42 54.82 .01640 1.0204 108.4 20.0 .038 27 2020 08 01 00 55 53.942 +16 43 18.10 .01841 1.0212 109.3 20.2 .049 45 2020 08 02 00 55 57.489 +16 43 20.53 .02042 1.0221 110.2 20.4 .061 55 2020 08 03 00 55 58.104 +16 43 05.38 .02243 1.0230 111.1 20.6 .072 60 2020 08 04 00 55 56.039 +16 42 34.25 .02443 1.0240 112.1 20.8 .083 64 2020 08 05 00 55 51.417 +16 41 47.79 .02642 1.0250 113.0 20.9 .093 66 2020 08 06 00 55 44.287 +16 40 46.01 .02841 1.0262 114.0 21.0 .102 67 2020 08 07 00 55 34.656 +16 39 28.56 .03039 1.0273 115.0 21.2 .110 68 2020 08 08 00 55 22.511 +16 37 54.85 .03237 1.0286 116.0 21.3 .117 69 2020 08 09 00 55 07.830 +16 36 04.21 .03434 1.0299 117.0 21.4 .124 69 2020 08 10 00 54 50.591 +16 33 55.89 .03630 1.0312 118.0 21.4 .130 70 2020 08 11 00 54 30.773 +16 31 29.15 .03826 1.0326 119.1 21.5 .135 70 2020 08 12 00 54 08.363 +16 28 43.23 .04022 1.0341 120.1 21.6 .140 70 2020 08 13 00 53 43.355 +16 25 37.43 .04217 1.0356 121.2 21.7 .143 70 2020 08 14 00 53 15.753 +16 22 11.08 .04412 1.0372 122.2 21.8 .146 70 2020 08 15 00 52 45.574 +16 18 23.58 .04607 1.0388 123.3 21.8 .149 70 2020 08 16 00 52 12.850 +16 14 14.40 .04801 1.0405 124.4 21.9 .151 70 2020 08 17 00 51 37.635 +16 09 43.14 .04995 1.0423 125.5 21.9 .152 70 2020 08 18 00 51 00.001 +16 04 49.57 .05190 1.0441 126.6 22.0 .152 70 2020 08 19 00 50 20.047 +15 59 33.63 .05385 1.0459 127.7 22.0 .152 71 2020 08 20 00 49 37.893 +15 53 55.48 .05580 1.0478 128.9 22.1 .151 71 2020 08 21 00 48 53.680 +15 47 55.52 .05776 1.0497 130.0 22.1 .150 71 2020 08 22 00 48 07.557 +15 41 34.34 .05972 1.0517 131.1 22.2 .149 71